Regional Weather Roundup
Issued by NWS Wakefield, VA

Home | Current Version | Previous Version | Graphics & Text | Print | Product List | Glossary On
Versions: 1 2 3 4 5 6 7 8 9 10 11 12 13 14 15 16 17 18 19 20 21 22 23 24 25 26
000
ASUS41 KAKQ 111415
RWRAKQ

REGIONAL WEATHER ROUNDUP
NATIONAL WEATHER SERVICE WAKEFIELD VA
900 AM EST MON DEC 11 2017

Note: "fair" indicates few or no clouds below 12,000 feet with no
significant weather and/or obstructions to visibility. * = Denotes
station may not report precipitation (e.g., rain,snow,etc.),
thunder or fog.

VAZ042-051-052>054-056-111500-
NORTHERN VIRGINIA

CITY           SKY/WX    TMP DP  RH WIND       PRES   REMARKS
WASH NATIONAL  MOSUNNY   38  29  70 S5        30.10R
DULLES         MOSUNNY   35  31  85 CALM      30.07F
FORT BELVOIR   SUNNY     35  29  79 CALM      30.09S
QUANTICO       SUNNY     36  30  79 CALM      30.11S
FREDERICKSBRG* SUNNY     35  28  76 CALM      30.09S
STAFFORD*      SUNNY     32  30  91 CALM      30.13S
WARRENTON      SUNNY     35  26  70 SW3       30.08S
CULPEPER*      SUNNY     33  26  76 CALM      30.10R
MANASSAS*      SUNNY     34  28  79 CALM      30.09S
LEESBURG*      SUNNY     36  30  80 W3        30.07S
WINCHESTER     MOSUNNY   34  23  64 SW5       30.06R
FRONT ROYAL*   SUNNY     34  23  64 W3        30.05R
LURAY*         SUNNY     32  27  80 CALM      30.06R
$$

VAZ048-049-060>072-079>083-111500-
CENTRAL AND SOUTH CENTRAL VIRGINIA

CITY           SKY/WX    TMP DP  RH WIND       PRES   REMARKS
RICHMOND       MOSUNNY   38  25  59 W8        30.11R
CHESTERFIELD*  NOT AVBL
PETERSBURG*    SUNNY     37  25  60 W5        30.11F
HANOVER        SUNNY     36  23  59 W8        30.11S
TAPPAHANNOCK*    N/A    N/A N/A N/A MISG        N/A
QUINTON*       FAIR      32  26  79 W5        30.10S
CHARLOTTSVILLE SUNNY     33  25  72 S3        30.08R
GORDONSVILLE*  SUNNY     32  26  77 SW5       30.08S
ORANGE*        SUNNY     32  27  80 CALM      30.09R
LOUISA*        SUNNY     34  22  62 SW3       30.14R
BUMPASS*       FAIR      33  24  69 SW6       30.09S
FARMVILLE*     SUNNY     35  28  76 SW3       30.10S
CREWE*         FAIR      40  25  53 W8        30.10S
FORT PICKETT*  NOT AVBL
CHASE CITY*    FAIR      33  25  70 W3        30.12S
CLARKSVILLE*   FAIR      37  27  65 W6        30.12S
SOUTH HILL*    SUNNY     37  28  71 SW3       30.18R
LAWRENCEVILLE* FAIR      35  27  73 W3        30.12S
EMPORIA*       SUNNY     34  28  80 SW5       30.14S
$$

VAZ088>098-111500-
SOUTHEAST VIRGINIA

CITY           SKY/WX    TMP DP  RH WIND       PRES   REMARKS
NORFOLK        SUNNY     39  28  64 SW8       30.11S
VIRGINIA BEACH MOSUNNY   37  27  67 SW7       30.12R
NORFOLK NAVAL  SUNNY     39  27  62 W10       30.13S
WEST POINT*    SUNNY    N/A N/A N/A W5        30.13S
SALUDA*        FAIR      35  28  75 W5        30.11S
NEWPORT NEWS   SUNNY     37  26  64 W9        30.12R
LANGLEY AFB    SUNNY     38  27  65 W8        30.11S
FORT EUSTIS    SUNNY     36  26  67 CALM      30.10R
WILLIAMSBURG*  SUNNY     39  28  65 W9        30.12S
HR EXEC AP*    FAIR      38  27  64 VRB7      30.13S
FRANKLIN*      SUNNY     36  28  73 W7        30.13S
US460-WAKEFLD  SUNNY     35  27  72 W7        30.12S
$$

VAZ020-022-025-037-045-111500-
WEST CENTRAL AND SOUTHWEST VIRGINIA

CITY           SKY/WX    TMP DP  RH WIND       PRES   REMARKS
STAUNTON*      SUNNY     29  22  75 CALM      30.08R
WAYNESBORO*    SUNNY     36  22  57 CALM      30.05R
HOT SPRINGS VA SUNNY     27  19  73 W12       29.96R WCI  17
LYNCHBURG      SUNNY     35  25  66 SE8       30.11R
DANVILLE       SUNNY     31  26  82 S5        30.14R
SOUTH BOSTON*  FAIR      33  25  73 CALM      30.14R
MARTINSVILLE   SUNNY     27  22  80 CALM      30.14S
ROANOKE        SUNNY     40  24  53 S5        30.11R
BLACKSBURG     SUNNY     36  25  64 SW5       30.10R
DUBLIN*        SUNNY     33  24  68 SW8       30.10R
MARION*        SUNNY     30  20  66 W12       30.11R WCI  21
HILLSVILLE*    SUNNY     31  21  67 SW3       30.06R
RICHLANDS*     FAIR      31  21  65 SW6       30.07S
WISE*          SUNNY     32  27  80 S6        30.07S
ABINGDON*      SUNNY     32  24  71 CALM      30.11S
$$

MDZ021>025-VAZ099-100-111500-
SOUTHERN MARYLAND AND THE DELMARVA PENINSULA

CITY           SKY/WX    TMP DP  RH WIND       PRES   REMARKS
PATUXENT RIVER SUNNY     36  31  82 SW3       30.11R
BAY BRIDGE APT CLOUDY    39  28  65 NW5       30.09R
LEONARDTOWN    SUNNY     32  30  93 CALM      30.11S
DOVER          CLOUDY    36  29  76 W7        30.09R
GEORGETOWN     SUNNY     34  29  82 SW5       30.11R
EASTON         MOSUNNY   39  30  70 CALM      30.13R
CAMBRIDGE      SUNNY     32  30  93 CALM      30.10S
SALISBURY      SUNNY     28  28 100 CALM      30.11R
OCEAN CITY     SUNNY     38  33  82 CALM      30.11R
WALLOPS ISLAND SUNNY     39  32  76 CALM      30.12R
ACCOMACK*      SUNNY     40  32  74 CALM      30.11S
$$

NCZ012>017-030>032-111500-
NORTH CENTRAL AND EASTERN NORTH CAROLINA

CITY           SKY/WX    TMP DP  RH WIND       PRES   REMARKS
ROANOKE RAPIDS FAIR      32  32 100 CALM      30.14R
RALEIGH        MOSUNNY   33  28  81 SW3       30.15S
ELIZABETH CITY SUNNY     38  31  76 W7        30.14S
AHOSKIE*       SUNNY     33  28  84 CALM      30.14S
EDENTON*       SUNNY     40  31  71 W8        30.15S
CURRITUCK*     SUNNY     36  29  75 SW7       30.14R
KILL DEVIL HLS SUNNY     40  30  67 CALM      30.13S
MANTEO         SUNNY     40  30  68 W8        30.15S
CAPE HATTERAS  SUNNY     47  34  60 W8        30.16S
TARBORO*       NOT AVBL
GOLDSBORO      SUNNY     37  29  75 W6        30.16R
WASHINGTON     SUNNY     36  29  76 SW6       30.17S
GREENVILLE     SUNNY     36  30  80 SW5       30.17S
NEW BERN       SUNNY     37  31  78 W5        30.19S
WILMINGTON     SUNNY     40  31  70 W7        30.19S
$$

VAZ048-111500-
ELSEWHERE

CITY           SKY/WX    TMP DP  RH WIND       PRES   REMARKS
HARRISBURG PA  CLOUDY    36  25  64 CALM      30.05R
BALTIMORE      PTSUNNY   37  28  70 CALM      30.08R
ANNAPOLIS      CLOUDY    38  30  73 CALM      30.09R
ANDREWS AFB    SUNNY     38  27  65 CALM      30.07S
PHILADELPHIA   PTSUNNY   37  25  61 W12       30.07R
GREENSBORO     SUNNY     32  26  78 W5        30.11S
ROCKY MOUNT    SUNNY     35  31  85 SW5       30.16R
$$

VAZ100-111500-
MARINE

STATION/POSITION TIME  TEMP    WIND        PRES    WAVE   SWELL
                       AIR SEA DIR/SP/G            HT/PER HT/PER
                 (UTC) (F)     (DEG/KT/KT) (MB)    (FT/S) (FT/S)
BRANDYWINE LGT   1348   39     270/ 13/ 16 1019.2R
CAPE MAY NJ      1348   40 42  270/  9/ 11 1018.4R
LEWES DE         1348   35 46  220/  3/  5 1019.1R
15NM E FENWICK I 1350   44 54  300/ 12/ 16 1019.5R   3/ 9   2/ 9
OCEAN-CITY-INLET 1348   38 43  290/  2/  3 1019.8R
WACHAPREAGUE VA  1348   41 40  250/  3/  5 1019.6S
THOMAS POINT MD  1400   39 48  300/  4/  5   N/A
GOOSES REEF MD   1400   41 47  210/  2/  4 1020.0    1
COVE POINT MD    1348   41      CALM  /  4 1020.0R
SOLOMONS ISLAND  1348   40 49  200/  2/  3 1019.2R
BISHOPS HEAD MD  1348   40 40  310/  2/  2 1019.7R
PINEY POINT MD   1348          230/  3/  4   N/A
POTOMAC MD       1400   40 48  240/  4/  6 1019.1    1
CAMBRIDGE MD     1342   38 44              1019.9R
LEWISETTA VA     1348   37 43  230/  5/  6 1019.8R
RAPPAHANNOCK LGT 1348          300/  7/  9 1020.3R
STINGRAY PT      1400   38 48  290/  4/  6 1020.1    1
YORK RVR RNG VA  1348   40     260/  8/ 10 1020.2R
YORKTOWN VA      1348   38 50  250/  3/  5 1019.6R
JAMESTOWN VA     1400      47  290/  8/ 12   N/A     1
DOMINION TERM VA 1348   37     300/  8/ 10 1020.1R
KIPTOPEKE VA     1348      47  310/  7/ 10   N/A
CAPE HENRY VA    1348   38     260/  7/  8   N/A
WILLOUBY STN VA  1348   38     290/ 12/ 13 1019.6R
S CRANEY ISL VA  1348   38     280/  4/  6 1019.8R
CAPE HENRY BUOY  1400      54                N/A     2/ 4
1ST LANDING BUOY 1400   41 49  280/ 12/ 14 1019.8    1/ 3
CAPE CHARLES BUO 1351      54                N/A     3/ 3
64NM E OF VA BCH 1350   47 60  280/ 19/ 23 1019.8R   5/ 5   2/11
DUCK PIER NC     1348   41 53  260/ 12/ 15 1019.9S
44100 DUCK FRF   1345      54                N/A     2/ 3
44056 DUCK FRF   1400      53                N/A     1/ 9
OREGON INLET NC  1336   41 45  250/ 12/ 14 1020.7R
HATTERAS NC      1348   46 52  270/ 12/ 15 1020.9F
DIAMOND SHLS NC  1400   51     270/ 16/ 19 1021.4
CAPE LOOKOUT NC  1400          310/  7/  9 1022.1R
$$




USA.gov is the U.S. government's official web portal to all federal, state and local government web resources and services.